Regional Weather Roundup
Issued by NWS

Home | Current Version | Previous Version | Graphics & Text | Print | Product List | Glossary On
Versions: 1 2 3 4 5 6 7 8 9 10 11 12 13 14 15 16 17 18 19 20 21 22 23 24 25 26 27 28 29 30 31 32 33 34 35 36 37 38 39 40 41 42 43 44 45 46 47 48 49 50
000
ASUS43 KLMK 190902
RWRKY
KENTUCKY REGIONAL WEATHER ROUNDUP
NATIONAL WEATHER SERVICE LOUISVILLE KY
400 AM EST MON FEB 19 2018

NOTE "FAIR" INDICATES FEW OR NO CLOUDS BELOW 12,000 FEET
WITH NO SIGNIFICANT WEATHER AND/OR OBSTRUCTIONS TO VISIBILITY.

KYZ001>023-026-027-061>063-070>075-191000-
WESTERN AND SOUTH CENTRAL KENTUCKY

CITY           SKY/WX    TMP DP  RH WIND       PRES   REMARKS
PADUCAH        CLOUDY    57  53  86 S12G17    30.04S
HENDERSON      CLOUDY    55  52  89 S14       30.04S
OWENSBORO      CLOUDY    55  51  86 S10       30.07R
HOPKINSVILLE   CLOUDY    58  56  94 S10       30.10S
BOWLING GREEN  CLOUDY    58  54  86 S14       30.13F
GLASGOW        NOT AVBL
$$

KYZ024-025-028>034-038-045-046-053-191000-
NORTH CENTRAL KENTUCKY

CITY           SKY/WX    TMP DP  RH WIND       PRES   REMARKS
LOUISVILLE/SDF CLOUDY    55  48  77 S9        30.08F
LOUISVILLE/LOU CLOUDY    54  47  77 MISG      30.10R
FORT KNOX      CLOUDY    55  50  84 S13       30.09S
$$

KYZ035>037-039>044-047>052-055>060-089>105-191000-
NORTHEAST KENTUCKY

CITY           SKY/WX    TMP DP  RH WIND       PRES   REMARKS
LEXINGTON      CLOUDY    52  47  83 S12       30.12S
COVINGTON      CLOUDY    50  41  71 S9        30.06S
FRANKFORT      CLOUDY    56  47  71 S10       30.10S
$$

KYZ054-064>069-076>088-106>120-191000-
SOUTHEAST KENTUCKY

CITY           SKY/WX    TMP DP  RH WIND       PRES   REMARKS
JACKSON        CLOUDY    52  45  77 SW6       30.17S
LONDON         CLOUDY    57  50  77 S7        30.18R
SOMERSET       NOT AVBL
MIDDLESBORO    CLOUDY    51  45  79 CALM      30.25S
MONTICELLO     NOT AVBL
$$





USA.gov is the U.S. government's official web portal to all federal, state and local government web resources and services.